�ϑ��_��,����,�C��[��],�C�� �i�����,���x[%RH],���x �i�����,���n�C��[hPa],���n�C�� �i�����,�C�ʋC��[hPa],�C�ʋC�� �i�����,����[m/s],���� �i�����,����,���� �i�����,�ő�u�ԕ���[m/s],�ő�u�ԕ��� �i�����,�ő�u�ԕ���������,�ő�u�ԕ��������� �i�����,����[W/�u],���� �i�����,���J,���J �i�����,1���ԉJ��[mm/h],1���ԉJ�� �i�����,�ϐ��[cm],�ϐ�� �i�����,�~���[cm/h],�~��� �i�����,����[m],���� �i�����,���ʕω�,���ʕω� �i�����
�k�C���X�y�[�X�|�[�g(�����),2023/04/01 01:00:00,5.1,0,62,0,1009.6,0,1012.6,0,3.3,0,�k��,0,5.2,0,�k�k��,0,0,0,�Ȃ�,0,,,,,,,,,,
�k�C���X�y�[�X�|�[�g(�����),2023/04/01 02:00:00,4.4,0,67,0,1009.7,0,1012.7,0,5.2,0,�k��,0,8.0,0,�k�k��,0,0,0,�Ȃ�,0,,,,,,,,,,
�k�C���X�y�[�X�|�[�g(�����),2023/04/01 03:00:00,4.0,0,64,0,1009.8,0,1012.8,0,6.7,0,�k��,0,11.9,0,�k�k��,0,0,0,�Ȃ�,0,,,,,,,,,,
�k�C���X�y�[�X�|�[�g(�����),2023/04/01 04:00:00,4.5,0,53,0,1010.2,0,1013.2,0,6.6,0,�k�k��,0,10.3,0,�k��,0,0,0,�Ȃ�,0,,,,,,,,,,
�k�C���X�y�[�X�|�[�g(�����),2023/04/01 05:00:00,3.6,0,58,0,1011.0,0,1014.0,0,4.3,0,�k��,0,10.0,0,�k�k��,0,0,0,�Ȃ�,0,,,,,,,,,,
�k�C���X�y�[�X�|�[�g(�����),2023/04/01 06:00:00,4.4,0,56,0,1011.8,0,1014.8,0,6.3,0,�k��,0,12.1,0,�k�k��,0,18,0,�Ȃ�,0,,,,,,,,,,
�k�C���X�y�[�X�|�[�g(�����),2023/04/01 07:00:00,5.2,0,52,0,1012.3,0,1015.3,0,6.7,0,�k��,0,12.3,0,�k�k��,0,104,0,�Ȃ�,0,,,,,,,,,,
�k�C���X�y�[�X�|�[�g(�����),2023/04/01 08:00:00,6.4,0,45,0,1012.5,0,1015.5,0,8.1,0,�k��,0,11.7,0,�k��,0,272,0,�Ȃ�,0,,,,,,,,,,
�k�C���X�y�[�X�|�[�g(�����),2023/04/01 09:00:00,8.4,0,43,0,1012.6,0,1015.5,0,5.7,0,�k��,0,10.8,0,�k�k��,0,464,0,�Ȃ�,0,,,,,,,,,,
�k�C���X�y�[�X�|�[�g(�����),2023/04/01 10:00:00,9.7,0,39,0,1012.3,0,1015.2,0,6.6,0,�k��,0,10.9,0,�k�k��,0,653,0,�Ȃ�,0,,,,,,,,,,
�k�C���X�y�[�X�|�[�g(�����),2023/04/01 11:00:00,11.1,0,34,0,1011.6,0,1014.5,0,7.1,0,�k��,0,11.6,0,�k��,0,809,0,�Ȃ�,0,,,,,,,,,,
�k�C���X�y�[�X�|�[�g(�����),2023/04/01 12:00:00,11.5,0,30,0,1010.9,0,1013.8,0,7.3,0,�k�k��,0,13.3,0,���k��,0,886,0,����,0,,,,,,,,,,
�k�C���X�y�[�X�|�[�g(�����),2023/04/01 13:00:00,11.4,0,34,0,1011.1,0,1014.0,0,7.3,0,�k�k��,0,12.1,0,�k�k��,0,862,0,�Ȃ�,0,,,,,,,,,,
�k�C���X�y�[�X�|�[�g(�����),2023/04/01 14:00:00,11.0,0,39,0,1011.1,0,1014.0,0,8.2,0,�k�k��,0,14.1,0,�k�k��,0,747,0,�Ȃ�,0,,,,,,,,,,
�k�C���X�y�[�X�|�[�g(�����),2023/04/01 15:00:00,11.0,0,41,0,1011.5,0,1014.4,0,7.4,0,�k��,0,14.2,0,�k�k��,0,573,0,�Ȃ�,0,,,,,,,,,,
�k�C���X�y�[�X�|�[�g(�����),2023/04/01 16:00:00,10.5,0,42,0,1012.3,0,1015.2,0,6.5,0,�k�k��,0,11.8,0,�k�k��,0,374,0,����,0,,,,,,,,,,
�k�C���X�y�[�X�|�[�g(�����),2023/04/01 17:00:00,9.7,0,46,0,1013.2,0,1016.1,0,5.5,0,�k�k��,0,10.8,0,�k��,0,183,0,����,0,,,,,,,,,,
�k�C���X�y�[�X�|�[�g(�����),2023/04/01 18:00:00,7.9,0,50,0,1014.2,0,1017.2,0,0.5,0,�k��,0,8.2,0,�k�k��,0,34,0,�Ȃ�,0,,,,,,,,,,
�k�C���X�y�[�X�|�[�g(�����),2023/04/01 19:00:00,5.9,0,67,0,1015.4,0,1018.4,0,2.2,0,��,0,3.8,0,��,0,0,0,�Ȃ�,0,,,,,,,,,,
�k�C���X�y�[�X�|�[�g(�����),2023/04/01 20:00:00,4.8,0,71,0,1016.4,0,1019.4,0,1.7,0,��,0,4.1,0,���쐼,0,0,0,�Ȃ�,0,,,,,,,,,,
�k�C���X�y�[�X�|�[�g(�����),2023/04/01 21:00:00,5.1,0,68,0,1017.1,0,1020.1,0,2.7,0,���k��,0,3.5,0,���k��,0,0,0,�Ȃ�,0,,,,,,,,,,
�k�C���X�y�[�X�|�[�g(�����),2023/04/01 22:00:00,5.0,0,69,0,1017.4,0,1020.4,0,2.9,0,�k��,0,4.4,0,�k�k��,0,0,0,�Ȃ�,0,,,,,,,,,,
�k�C���X�y�[�X�|�[�g(�����),2023/04/01 23:00:00,3.9,0,72,0,1017.9,0,1020.9,0,0.8,0,�k,0,5.2,0,�k�k��,0,0,0,�Ȃ�,0,,,,,,,,,,
�k�C���X�y�[�X�|�[�g(�����),2023/04/02 00:00:00,3.3,0,77,0,1018.4,0,1021.4,0,1.7,0,�k�k��,0,3.0,0,���k��,0,0,0,�Ȃ�,0,,,,,,,,,,
�k�C���X�y�[�X�|�[�g(�����),2023/04/02 01:00:00,2.9,0,81,0,1018.3,0,1021.3,0,1.2,0,�k�k��,0,3.4,0,�k��,0,0,0,�Ȃ�,0,,,,,,,,,,
�k�C���X�y�[�X�|�[�g(�����),2023/04/02 02:00:00,3.3,0,79,0,1018.4,0,1021.4,0,2.0,0,�k��,0,3.6,0,�k��,0,0,0,�Ȃ�,0,,,,,,,,,,
�k�C���X�y�[�X�|�[�g(�����),2023/04/02 03:00:00,2.9,0,79,0,1018.8,0,1021.8,0,2.9,0,�k��,0,4.5,0,�k�k��,0,0,0,�Ȃ�,0,,,,,,,,,,
�k�C���X�y�[�X�|�[�g(�����),2023/04/02 04:00:00,3.1,0,75,0,1019.5,0,1022.5,0,1.9,0,�k�k��,0,5.9,0,�k�k��,0,0,0,�Ȃ�,0,,,,,,,,,,
�k�C���X�y�[�X�|�[�g(�����),2023/04/02 05:00:00,2.8,0,76,0,1020.2,0,1023.2,0,4.3,0,�k�k��,0,7.0,0,�k�k��,0,0,0,�Ȃ�,0,,,,,,,,,,
�k�C���X�y�[�X�|�[�g(�����),2023/04/02 06:00:00,3.2,0,72,0,1020.9,0,1023.9,0,3.0,0,�k�k��,0,6.2,0,�k�k��,0,27,0,�Ȃ�,0,,,,,,,,,,
�k�C���X�y�[�X�|�[�g(�����),2023/04/02 07:00:00,4.5,0,63,0,1021.4,0,1024.4,0,1.6,0,�k�k��,0,6.4,0,�k�k��,0,107,0,����,0,,,,,,,,,,
�k�C���X�y�[�X�|�[�g(�����),2023/04/02 08:00:00,5.6,0,57,0,1021.4,0,1024.4,0,2.2,0,�k�k��,0,6.6,0,�k��,0,281,0,����,0,,,,,,,,,,
�k�C���X�y�[�X�|�[�g(�����),2023/04/02 09:00:00,4.1,0,72,0,1021.6,0,1024.6,0,3.3,0,���쓌,0,5.7,0,���쓌,0,483,0,����,0,,,,,,,,,,
�k�C���X�y�[�X�|�[�g(�����),2023/04/02 10:00:00,3.5,0,73,0,1021.5,0,1024.5,0,4.6,0,���쓌,0,6.2,0,���쓌,0,673,0,����,0,,,,,,,,,,
�k�C���X�y�[�X�|�[�g(�����),2023/04/02 11:00:00,4.3,0,71,0,1021.1,0,1024.1,0,4.0,0,���쓌,0,6.4,0,���쓌,0,822,0,����,0,,,,,,,,,,
�k�C���X�y�[�X�|�[�g(�����),2023/04/02 12:00:00,4.9,0,66,0,1020.5,0,1023.5,0,3.8,0,�쓌,0,6.2,0,���쓌,0,899,0,����,0,,,,,,,,,,
�k�C���X�y�[�X�|�[�g(�����),2023/04/02 13:00:00,6.1,0,61,0,1019.7,0,1022.7,0,3.8,0,�쓌,0,5.8,0,�쓌,0,877,0,����,0,,,,,,,,,,
�k�C���X�y�[�X�|�[�g(�����),2023/04/02 14:00:00,5.1,0,67,0,1019.4,0,1022.4,0,4.3,0,��,0,6.8,0,��,0,766,0,����,0,,,,,,,,,,
�k�C���X�y�[�X�|�[�g(�����),2023/04/02 15:00:00,5.5,0,55,0,1019.4,0,1022.4,0,3.2,0,��쓌,0,6.8,0,��,0,591,0,����,0,,,,,,,,,,
�k�C���X�y�[�X�|�[�g(�����),2023/04/02 16:00:00,5.7,0,51,0,1019.6,0,1022.6,0,2.5,0,�쓌,0,4.5,0,��쓌,0,391,0,����,0,,,,,,,,,,
�k�C���X�y�[�X�|�[�g(�����),2023/04/02 17:00:00,4.8,0,58,0,1019.7,0,1022.7,0,2.5,0,��,0,3.4,0,��,0,192,0,����,0,,,,,,,,,,
�k�C���X�y�[�X�|�[�g(�����),2023/04/02 18:00:00,3.1,0,73,0,1020.1,0,1023.1,0,0.5,0,�k�k��,0,3.9,0,��,0,32,0,�Ȃ�,0,,,,,,,,,,
�k�C���X�y�[�X�|�[�g(�����),2023/04/02 19:00:00,2.1,0,67,0,1020.6,0,1023.6,0,0.6,0,�k�k��,0,1.7,0,���k��,0,0,0,�Ȃ�,0,,,,,,,,,,
�k�C���X�y�[�X�|�[�g(�����),2023/04/02 20:00:00,1.1,0,66,0,1021.2,0,1024.3,0,1.4,0,�k��,0,1.9,0,�k�k��,0,0,0,�Ȃ�,0,,,,,,,,,,
�k�C���X�y�[�X�|�[�g(�����),2023/04/02 21:00:00,0.8,0,67,0,1021.4,0,1024.5,0,0.9,0,���k��,0,1.5,0,���k��,0,0,0,�Ȃ�,0,,,,,,,,,,
�k�C���X�y�[�X�|�[�g(�����),2023/04/02 22:00:00,-0.6,0,72,0,1021.6,0,1024.7,0,1.0,0,���k��,0,1.8,0,�k��,0,0,0,�Ȃ�,0,,,,,,,,,,
�k�C���X�y�[�X�|�[�g(�����),2023/04/02 23:00:00,-0.2,0,74,0,1021.7,0,1024.8,0,1.2,0,���쐼,0,2.1,0,���쐼,0,0,0,�Ȃ�,0,,,,,,,,,,
�k�C���X�y�[�X�|�[�g(�����),2023/04/03 00:00:00,-1.8,0,81,0,1021.6,0,1024.7,0,1.3,0,���쐼,0,2.5,0,�쐼,0,0,0,�Ȃ�,0,,,,,,,,,,
�k�C���X�y�[�X�|�[�g(�����),2023/04/03 01:00:00,-2.0,0,84,0,1021.3,0,1024.4,0,0.7,0,���k��,0,2.6,0,�쐼,0,0,0,�Ȃ�,0,,,,,,,,,,
�k�C���X�y�[�X�|�[�g(�����),2023/04/03 02:00:00,-2.5,0,86,0,1021.0,0,1024.1,0,1.1,0,��,0,2.2,0,���쐼,0,0,0,�Ȃ�,0,,,,,,,,,,
�k�C���X�y�[�X�|�[�g(�����),2023/04/03 03:00:00,-2.6,0,89,0,1020.9,0,1024.0,0,1.1,0,��,0,2.1,0,���쐼,0,0,0,�Ȃ�,0,,,,,,,,,,
�k�C���X�y�[�X�|�[�g(�����),2023/04/03 04:00:00,-2.3,0,85,0,1021.2,0,1024.3,0,1.9,0,���k��,0,3.1,0,���k��,0,0,0,�Ȃ�,0,,,,,,,,,,
�k�C���X�y�[�X�|�[�g(�����),2023/04/03 05:00:00,-0.9,0,81,0,1021.5,0,1024.6,0,1.9,0,�k��,0,3.7,0,���k��,0,0,0,�Ȃ�,0,,,,,,,,,,
�k�C���X�y�[�X�|�[�g(�����),2023/04/03 06:00:00,-1.2,0,81,0,1022.0,0,1025.1,0,0.8,0,�k��,0,2.0,0,�k��,0,24,0,�Ȃ�,0,,,,,,,,,,
�k�C���X�y�[�X�|�[�g(�����),2023/04/03 07:00:00,1.9,0,72,0,1022.6,0,1025.6,0,0.8,0,�k��,0,1.3,0,���k��,0,135,0,�Ȃ�,0,,,,,,,,,,
�k�C���X�y�[�X�|�[�g(�����),2023/04/03 08:00:00,4.1,0,65,0,1022.9,0,1025.9,0,1.3,0,��,0,2.5,0,��,0,291,0,����,0,,,,,,,,,,
�k�C���X�y�[�X�|�[�g(�����),2023/04/03 09:00:00,3.6,0,71,0,1023.0,0,1026.0,0,3.5,0,��,0,4.7,0,��,0,490,0,����,0,,,,,,,,,,
�k�C���X�y�[�X�|�[�g(�����),2023/04/03 10:00:00,3.2,0,69,0,1022.9,0,1025.9,0,4.0,0,��,0,6.0,0,���k��,0,684,0,����,0,,,,,,,,,,
�k�C���X�y�[�X�|�[�g(�����),2023/04/03 11:00:00,4.6,0,68,0,1022.4,0,1025.4,0,3.0,0,��,0,5.6,0,��,0,835,0,����,0,,,,,,,,,,
�k�C���X�y�[�X�|�[�g(�����),2023/04/03 12:00:00,5.1,0,72,0,1021.9,0,1024.9,0,3.4,0,���쓌,0,5.7,0,���쓌,0,902,0,����,0,,,,,,,,,,
�k�C���X�y�[�X�|�[�g(�����),2023/04/03 13:00:00,5.5,0,74,0,1021.4,0,1024.4,0,3.2,0,�쓌,0,5.5,0,���쓌,0,872,0,����,0,,,,,,,,,,
�k�C���X�y�[�X�|�[�g(�����),2023/04/03 14:00:00,4.8,0,76,0,1021.2,0,1024.2,0,3.5,0,��쓌,0,5.8,0,�쓌,0,753,0,����,0,,,,,,,,,,
�k�C���X�y�[�X�|�[�g(�����),2023/04/03 15:00:00,5.5,0,65,0,1020.9,0,1023.9,0,2.9,0,��,0,5.3,0,��,0,574,0,����,0,,,,,,,,,,
�k�C���X�y�[�X�|�[�g(�����),2023/04/03 16:00:00,5.7,0,62,0,1020.9,0,1023.9,0,2.0,0,�쓌,0,4.4,0,��쓌,0,376,0,����,0,,,,,,,,,,
�k�C���X�y�[�X�|�[�g(�����),2023/04/03 17:00:00,4.7,0,68,0,1020.9,0,1023.9,0,1.9,0,��,0,3.5,0,���쓌,0,186,0,����,0,,,,,,,,,,
�k�C���X�y�[�X�|�[�g(�����),2023/04/03 18:00:00,3.4,0,74,0,1021.1,0,1024.1,0,0.5,0,�k��,0,2.7,0,���k��,0,38,0,�Ȃ�,0,,,,,,,,,,
�k�C���X�y�[�X�|�[�g(�����),2023/04/03 19:00:00,2.6,0,78,0,1021.7,0,1024.7,0,1.3,0,�k��,0,2.0,0,�k�k��,0,0,0,�Ȃ�,0,,,,,,,,,,
�k�C���X�y�[�X�|�[�g(�����),2023/04/03 20:00:00,1.5,0,82,0,1022.3,0,1025.3,0,1.6,0,�k�k��,0,2.1,0,�k�k��,0,0,0,�Ȃ�,0,,,,,,,,,,
�k�C���X�y�[�X�|�[�g(�����),2023/04/03 21:00:00,0.3,0,87,0,1022.7,0,1025.8,0,0.3,0,�k�k��,0,1.7,0,�k�k��,0,0,0,�Ȃ�,0,,,,,,,,,,
�k�C���X�y�[�X�|�[�g(�����),2023/04/03 22:00:00,-0.1,0,89,0,1022.7,0,1025.8,0,1.2,0,���k��,0,1.9,0,���k��,0,0,0,�Ȃ�,0,,,,,,,,,,
�k�C���X�y�[�X�|�[�g(�����),2023/04/03 23:00:00,-1.2,0,88,0,1022.3,0,1025.4,0,0.9,0,���k��,0,1.9,0,���k��,0,0,0,�Ȃ�,0,,,,,,,,,,
�k�C���X�y�[�X�|�[�g(�����),2023/04/04 00:00:00,-1.3,0,90,0,1022.0,0,1025.1,0,2.4,0,���쐼,0,2.8,0,���쐼,0,0,0,�Ȃ�,0,,,,,,,,,,
�k�C���X�y�[�X�|�[�g(�����),2023/04/04 01:00:00,-1.9,0,92,0,1021.7,0,1024.8,0,0.9,0,���k��,0,2.6,0,���쐼,0,0,0,�Ȃ�,0,,,,,,,,,,
�k�C���X�y�[�X�|�[�g(�����),2023/04/04 02:00:00,-2.1,0,93,0,1021.4,0,1024.5,0,1.3,0,���쐼,0,2.3,0,���쐼,0,0,0,�Ȃ�,0,,,,,,,,,,
�k�C���X�y�[�X�|�[�g(�����),2023/04/04 03:00:00,-2.0,0,92,0,1021.0,0,1024.1,0,1.3,0,���쐼,0,2.3,0,���쐼,0,0,0,�Ȃ�,0,,,,,,,,,,
�k�C���X�y�[�X�|�[�g(�����),2023/04/04 04:00:00,-2.5,0,91,0,1021.0,0,1024.1,0,1.0,0,��,0,2.6,0,���쐼,0,0,0,�Ȃ�,0,,,,,,,,,,
�k�C���X�y�[�X�|�[�g(�����),2023/04/04 05:00:00,-3.4,0,90,0,1021.1,0,1024.2,0,1.8,0,�쐼,0,2.5,0,���쐼,0,0,0,�Ȃ�,0,,,,,,,,,,
�k�C���X�y�[�X�|�[�g(�����),2023/04/04 06:00:00,-2.9,0,90,0,1021.1,0,1024.2,0,1.6,0,���쐼,0,2.6,0,�쐼,0,27,0,�Ȃ�,0,,,,,,,,,,
�k�C���X�y�[�X�|�[�g(�����),2023/04/04 07:00:00,1.9,0,86,0,1020.8,0,1023.8,0,0.8,0,�k��,0,2.0,0,���쐼,0,135,0,����,0,,,,,,,,,,
�k�C���X�y�[�X�|�[�g(�����),2023/04/04 08:00:00,4.0,0,78,0,1020.4,0,1023.4,0,2.2,0,��쓌,0,3.8,0,��,0,282,0,����,0,,,,,,,,,,
�k�C���X�y�[�X�|�[�g(�����),2023/04/04 09:00:00,3.6,0,76,0,1019.9,0,1022.9,0,2.8,0,�쓌,0,4.2,0,�쓌,0,444,0,����,0,,,,,,,,,,
�k�C���X�y�[�X�|�[�g(�����),2023/04/04 10:00:00,2.7,0,84,0,1019.0,0,1022.0,0,2.9,0,���쓌,0,4.4,0,��,0,555,0,����,0,,,,,,,,,,
�k�C���X�y�[�X�|�[�g(�����),2023/04/04 11:00:00,4.4,0,86,0,1017.9,0,1020.9,0,2.9,0,��,0,4.7,0,��,0,553,0,����,0,,,,,,,,,,
�k�C���X�y�[�X�|�[�g(�����),2023/04/04 12:00:00,4.8,0,80,0,1016.9,0,1019.9,0,4.2,0,��,0,5.8,0,���k��,0,555,0,����,0,,,,,,,,,,
�k�C���X�y�[�X�|�[�g(�����),2023/04/04 13:00:00,5.7,0,76,0,1016.1,0,1019.1,0,4.2,0,��,0,7.1,0,���k��,0,732,0,����,0,,,,,,,,,,
�k�C���X�y�[�X�|�[�g(�����),2023/04/04 14:00:00,6.2,0,84,0,1015.3,0,1018.3,0,3.0,0,��,0,5.6,0,��,0,499,0,����,0,,,,,,,,,,
�k�C���X�y�[�X�|�[�g(�����),2023/04/04 15:00:00,6.1,0,84,0,1014.6,0,1017.6,0,2.5,0,���쓌,0,4.5,0,��,0,449,0,����,0,,,,,,,,,,
�k�C���X�y�[�X�|�[�g(�����),2023/04/04 16:00:00,6.2,0,88,0,1014.3,0,1017.3,0,0.9,0,���쓌,0,3.2,0,��,0,179,0,����,0,,,,,,,,,,
�k�C���X�y�[�X�|�[�g(�����),2023/04/04 17:00:00,6.6,0,85,0,1014.3,0,1017.3,0,1.0,0,���k��,0,1.8,0,�k�k��,0,78,0,����,0,,,,,,,,,,
�k�C���X�y�[�X�|�[�g(�����),2023/04/04 18:00:00,6.5,0,86,0,1014.3,0,1017.3,0,0.3,0,�k�k��,0,1.6,0,�k�k��,0,19,0,����,0,,,,,,,,,,
�k�C���X�y�[�X�|�[�g(�����),2023/04/04 19:00:00,7.6,0,82,0,1014.5,0,1017.5,0,3.1,0,���쐼,0,3.7,0,���쐼,0,0,0,����,0,,,,,,,,,,
�k�C���X�y�[�X�|�[�g(�����),2023/04/04 20:00:00,11.2,0,64,0,1014.7,0,1017.6,0,2.5,0,��,0,3.6,0,���쐼,0,0,0,����,0,,,,,,,,,,
�k�C���X�y�[�X�|�[�g(�����),2023/04/04 21:00:00,6.6,0,75,0,1014.8,0,1017.8,0,0.9,0,���쓌,0,2.8,0,��,0,0,0,����,0,,,,,,,,,,
�k�C���X�y�[�X�|�[�g(�����),2023/04/04 22:00:00,7.3,0,76,0,1014.8,0,1017.8,0,0.6,0,��쐼,0,2.0,0,���쐼,0,0,0,����,0,,,,,,,,,,
�k�C���X�y�[�X�|�[�g(�����),2023/04/04 23:00:00,8.4,0,66,0,1014.8,0,1017.8,0,1.8,0,�쐼,0,2.5,0,���쐼,0,0,0,����,0,,,,,,,,,,
�k�C���X�y�[�X�|�[�g(�����),2023/04/05 00:00:00,10.1,0,54,0,1014.9,0,1017.8,0,1.5,0,���k��,0,3.5,0,�쐼,0,0,0,����,0,,,,,,,,,,
�k�C���X�y�[�X�|�[�g(�����),2023/04/05 01:00:00,8.7,0,60,0,1014.3,0,1017.2,0,0.8,0,���k��,0,1.7,0,��,0,0,0,����,0,,,,,,,,,,
�k�C���X�y�[�X�|�[�g(�����),2023/04/05 02:00:00,8.4,0,63,0,1014.1,0,1017.0,0,0.5,0,�k�k��,0,2.0,0,�k�k��,0,0,0,�Ȃ�,0,,,,,,,,,,
�k�C���X�y�[�X�|�[�g(�����),2023/04/05 03:00:00,7.9,0,65,0,1014.0,0,1017.0,0,1.1,0,�k��,0,2.0,0,�k�k��,0,0,0,����,0,,,,,,,,,,
�k�C���X�y�[�X�|�[�g(�����),2023/04/05 04:00:00,7.4,0,64,0,1014.7,0,1017.7,0,1.8,0,���k��,0,2.7,0,���k��,0,0,0,����,0,,,,,,,,,,
�k�C���X�y�[�X�|�[�g(�����),2023/04/05 05:00:00,11.4,0,45,0,1015.1,0,1018.0,0,2.5,0,���k��,0,3.6,0,�k��,0,0,0,�Ȃ�,0,,,,,,,,,,
�k�C���X�y�[�X�|�[�g(�����),2023/04/05 06:00:00,10.8,0,46,0,1016.1,0,1019.0,0,1.2,0,�k��,0,4.7,0,�k��,0,13,0,�Ȃ�,0,,,,,,,,,,
�k�C���X�y�[�X�|�[�g(�����),2023/04/05 07:00:00,11.1,0,47,0,1016.2,0,1019.1,0,2.4,0,���쐼,0,4.0,0,���k��,0,56,0,����,0,,,,,,,,,,
�k�C���X�y�[�X�|�[�g(�����),2023/04/05 08:00:00,13.1,0,41,0,1016.7,0,1019.6,0,1.3,0,��,0,2.9,0,�k��,0,140,0,�Ȃ�,0,,,,,,,,,,
�k�C���X�y�[�X�|�[�g(�����),2023/04/05 09:00:00,13.7,0,39,0,1017.1,0,1020.0,0,1.0,0,���쓌,0,3.4,0,��쓌,0,200,0,�Ȃ�,0,,,,,,,,,,
�k�C���X�y�[�X�|�[�g(�����),2023/04/05 10:00:00,13.1,0,39,0,1017.3,0,1020.2,0,1.2,0,��쐼,0,2.9,0,�쓌,0,206,0,�Ȃ�,0,,,,,,,,,,
�k�C���X�y�[�X�|�[�g(�����),2023/04/05 11:00:00,15.4,0,33,0,1017.1,0,1020.0,0,0.7,0,�k��,0,2.1,0,���쓌,0,284,0,�Ȃ�,0,,,,,,,,,,
�k�C���X�y�[�X�|�[�g(�����),2023/04/05 12:00:00,14.1,0,33,0,1016.6,0,1019.5,0,4.6,0,��,0,6.8,0,��,0,549,0,�Ȃ�,0,,,,,,,,,,
�k�C���X�y�[�X�|�[�g(�����),2023/04/05 13:00:00,12.9,0,38,0,1016.3,0,1019.2,0,4.9,0,��,0,6.5,0,���k��,0,787,0,�Ȃ�,0,,,,,,,,,,
�k�C���X�y�[�X�|�[�g(�����),2023/04/05 14:00:00,11.0,0,53,0,1016.1,0,1019.0,0,3.3,0,���k��,0,7.1,0,���k��,0,583,0,�Ȃ�,0,,,,,,,,,,
�k�C���X�y�[�X�|�[�g(�����),2023/04/05 15:00:00,9.8,0,59,0,1015.8,0,1018.7,0,3.1,0,���k��,0,6.6,0,���k��,0,333,0,����,0,,,,,,,,,,
�k�C���X�y�[�X�|�[�g(�����),2023/04/05 16:00:00,9.2,0,66,0,1015.6,0,1018.5,0,2.6,0,���k��,0,6.2,0,���k��,0,198,0,����,0,,,,,,,,,,
�k�C���X�y�[�X�|�[�g(�����),2023/04/05 17:00:00,8.9,0,72,0,1015.9,0,1018.8,0,2.1,0,�k��,0,6.7,0,�k��,0,175,0,����,0,,,,,,,,,,
�k�C���X�y�[�X�|�[�g(�����),2023/04/05 18:00:00,7.4,0,73,0,1016.0,0,1019.0,0,1.5,0,�k��,0,4.2,0,���k��,0,34,0,����,0,,,,,,,,,,
�k�C���X�y�[�X�|�[�g(�����),2023/04/05 19:00:00,6.8,0,71,0,1016.4,0,1019.4,0,2.8,0,�k�k��,0,5.2,0,�k�k��,0,0,0,����,0,,,,,,,,,,
�k�C���X�y�[�X�|�[�g(�����),2023/04/05 20:00:00,6.6,0,73,0,1016.8,0,1019.8,0,2.4,0,�k�k��,0,4.8,0,�k��,0,0,0,�Ȃ�,0,,,,,,,,,,
�k�C���X�y�[�X�|�[�g(�����),2023/04/05 21:00:00,6.4,0,67,0,1016.7,0,1019.7,0,1.2,0,�k��,0,3.9,0,�k�k��,0,0,0,�Ȃ�,0,,,,,,,,,,
�k�C���X�y�[�X�|�[�g(�����),2023/04/05 22:00:00,5.9,0,73,0,1016.3,0,1019.3,0,1.3,0,�k�k��,0,2.9,0,�k�k��,0,0,0,����,0,,,,,,,,,,
�k�C���X�y�[�X�|�[�g(�����),2023/04/05 23:00:00,5.9,0,80,0,1016.1,0,1019.1,0,0.5,0,�k�k��,0,3.1,0,�k�k��,0,0,0,�Ȃ�,0,,,,,,,,,,
�k�C���X�y�[�X�|�[�g(�����),2023/04/06 00:00:00,5.8,0,77,0,1016.0,0,1019.0,0,0.4,0,��쐼,0,1.5,0,�k��,0,0,0,�Ȃ�,0,,,,,,,,,,
�k�C���X�y�[�X�|�[�g(�����),2023/04/06 01:00:00,5.9,0,74,0,1015.6,0,1018.6,0,0.6,0,���k��,0,1.9,0,��,0,0,0,����,0,,,,,,,,,,
�k�C���X�y�[�X�|�[�g(�����),2023/04/06 02:00:00,5.5,0,72,0,1015.4,0,1018.4,0,0.9,0,�k��,0,1.8,0,�k��,0,0,0,����,0,,,,,,,,,,
�k�C���X�y�[�X�|�[�g(�����),2023/04/06 03:00:00,5.2,0,71,0,1015.1,0,1018.1,0,1.3,0,�k�k��,0,2.3,0,�k�k��,0,0,0,����,0,,,,,,,,,,
�k�C���X�y�[�X�|�[�g(�����),2023/04/06 04:00:00,5.3,0,71,0,1015.2,0,1018.2,0,0.8,0,�k�k��,0,2.6,0,�k�k��,0,0,0,�Ȃ�,0,,,,,,,,,,
�k�C���X�y�[�X�|�[�g(�����),2023/04/06 05:00:00,4.9,0,74,0,1015.3,0,1018.3,0,0.5,0,�k��,0,2.6,0,�k�k��,0,0,0,�Ȃ�,0,,,,,,,,,,
�k�C���X�y�[�X�|�[�g(�����),2023/04/06 06:00:00,5.1,0,75,0,1015.5,0,1018.5,0,1.3,0,�쐼,0,2.3,0,��,0,20,0,����,0,,,,,,,,,,
�k�C���X�y�[�X�|�[�g(�����),2023/04/06 07:00:00,6.0,0,72,0,1014.6,0,1017.6,0,1.2,0,�k�k��,0,3.2,0,�k�k��,0,63,0,����,0,,,,,,,,,,
�k�C���X�y�[�X�|�[�g(�����),2023/04/06 08:00:00,7.2,0,69,0,1014.4,0,1017.4,0,2.2,0,���k��,0,4.5,0,���k��,0,201,0,����,0,,,,,,,,,,
�k�C���X�y�[�X�|�[�g(�����),2023/04/06 09:00:00,6.9,0,70,0,1013.8,0,1016.8,0,2.1,0,���k��,0,5.5,0,��,0,286,0,����,0,,,,,,,,,,
�k�C���X�y�[�X�|�[�g(�����),2023/04/06 10:00:00,6.4,0,75,0,1013.2,0,1016.2,0,4.4,0,��,0,7.0,0,��,0,386,0,����,0,,,,,,,,,,
�k�C���X�y�[�X�|�[�g(�����),2023/04/06 11:00:00,7.1,0,77,0,1012.5,0,1015.5,0,3.7,0,���k��,0,6.5,0,��,0,403,0,����,0,,,,,,,,,,
�k�C���X�y�[�X�|�[�g(�����),2023/04/06 12:00:00,8.0,0,78,0,1011.5,0,1014.4,0,3.6,0,��,0,5.8,0,��,0,518,0,����,0,,,,,,,,,,
�k�C���X�y�[�X�|�[�g(�����),2023/04/06 13:00:00,6.7,0,82,0,1009.9,0,1012.9,0,4.3,0,���k��,0,7.2,0,��,0,606,0,����,0,,,,,,,,,,
�k�C���X�y�[�X�|�[�g(�����),2023/04/06 14:00:00,6.6,0,87,0,1008.6,0,1011.6,0,2.6,0,���k��,0,6.2,0,�k��,0,251,0,����,0,,,,,,,,,,
�k�C���X�y�[�X�|�[�g(�����),2023/04/06 15:00:00,7.0,0,97,0,1007.6,0,1010.5,0,2.1,0,�k��,0,5.0,0,�k�k��,0,130,0,����,0,,,,,,,,,,
�k�C���X�y�[�X�|�[�g(�����),2023/04/06 16:00:00,8.3,0,94,0,1007.0,0,1009.9,0,2.3,0,��,0,4.0,0,�k�k��,0,184,0,����,0,,,,,,,,,,
�k�C���X�y�[�X�|�[�g(�����),2023/04/06 17:00:00,7.5,0,95,0,1006.6,0,1009.5,0,2.5,0,���쓌,0,4.2,0,���쓌,0,102,0,����,0,,,,,,,,,,
�k�C���X�y�[�X�|�[�g(�����),2023/04/06 18:00:00,7.8,0,98,0,1005.9,0,1008.8,0,1.9,0,�쓌,0,3.8,0,���쓌,0,10,0,����,0,,,,,,,,,,
�k�C���X�y�[�X�|�[�g(�����),2023/04/06 19:00:00,8.1,0,97,0,1005.6,0,1008.5,0,4.8,0,���쓌,0,6.6,0,��,0,0,0,����,0,,,,,,,,,,
�k�C���X�y�[�X�|�[�g(�����),2023/04/06 20:00:00,10.5,0,93,0,1006.0,0,1008.9,0,3.7,0,���쐼,0,9.1,0,��,0,0,0,����,0,,,,,,,,,,
�k�C���X�y�[�X�|�[�g(�����),2023/04/06 21:00:00,7.8,0,97,0,1005.3,0,1008.2,0,5.8,0,���k��,0,9.3,0,��,0,0,0,����,0,,,,,,,,,,
�k�C���X�y�[�X�|�[�g(�����),2023/04/06 22:00:00,11.1,0,90,0,1005.0,0,1007.9,0,6.4,0,��,0,11.5,0,��,0,0,0,����,0,,,,,,,,,,
�k�C���X�y�[�X�|�[�g(�����),2023/04/06 23:00:00,10.6,0,89,0,1004.7,0,1007.6,0,5.8,0,��,0,10.1,0,��,0,0,0,����,0,,,,,,,,,,
�k�C���X�y�[�X�|�[�g(�����),2023/04/07 00:00:00,12.4,0,87,0,1004.4,0,1007.3,0,4.6,0,��,0,9.0,0,��,0,0,0,����,0,,,,,,,,,,
�k�C���X�y�[�X�|�[�g(�����),2023/04/07 01:00:00,13.7,0,81,0,1003.9,0,1006.8,0,4.4,0,��,0,7.7,0,��,0,0,0,����,0,,,,,,,,,,
�k�C���X�y�[�X�|�[�g(�����),2023/04/07 02:00:00,14.8,0,82,0,1004.2,0,1007.0,0,4.0,0,��,0,8.7,0,��쓌,0,0,0,����,0,,,,,,,,,,
�k�C���X�y�[�X�|�[�g(�����),2023/04/07 03:00:00,13.7,0,82,0,1004.2,0,1007.1,0,4.3,0,��,0,8.6,0,�쓌,0,0,0,����,0,,,,,,,,,,
�k�C���X�y�[�X�|�[�g(�����),2023/04/07 04:00:00,14.7,0,83,0,1004.3,0,1007.2,0,3.4,0,��,0,7.0,0,��쓌,0,0,0,����,0,,,,,,,,,,
�k�C���X�y�[�X�|�[�g(�����),2023/04/07 05:00:00,11.5,0,84,0,1004.2,0,1007.1,0,4.0,0,��쓌,0,6.5,0,�쓌,0,0,0,����,0,,,,,,,,,,
�k�C���X�y�[�X�|�[�g(�����),2023/04/07 06:00:00,9.9,0,97,0,1004.0,0,1006.9,0,5.4,0,��쓌,0,8.9,0,��쓌,0,12,0,����,0,,,,,,,,,,
�k�C���X�y�[�X�|�[�g(�����),2023/04/07 07:00:00,9.2,0,96,0,1003.4,0,1006.3,0,5.5,0,��쓌,0,9.6,0,��,0,75,0,����,0,,,,,,,,,,
�k�C���X�y�[�X�|�[�g(�����),2023/04/07 08:00:00,9.2,0,98,0,1003.3,0,1006.2,0,5.1,0,��쓌,0,9.0,0,��쓌,0,89,0,����,0,,,,,,,,,,
�k�C���X�y�[�X�|�[�g(�����),2023/04/07 09:00:00,10.1,0,99,0,1002.5,0,1005.4,0,4.3,0,��,0,9.1,0,��,0,95,0,����,0,,,,,,,,,,
�k�C���X�y�[�X�|�[�g(�����),2023/04/07 10:00:00,9.7,0,100,0,1002.3,0,1005.2,0,4.7,0,��,0,8.3,0,��,0,101,0,����,0,,,,,,,,,,
�k�C���X�y�[�X�|�[�g(�����),2023/04/07 11:00:00,9.0,0,100,0,1001.2,0,1004.1,0,5.3,0,��,0,9.9,0,��,0,150,0,����,0,,,,,,,,,,
�k�C���X�y�[�X�|�[�g(�����),2023/04/07 12:00:00,9.5,0,100,0,1000.5,0,1003.4,0,5.3,0,��,0,10.0,3,��,3,107,3,�Ȃ�,0,0.0,3,,,,,,,,
�k�C���X�y�[�X�|�[�g(�����),2023/04/07 13:00:00,9.8,0,100,0,1000.1,0,1003.0,0,4.8,0,��,0,9.7,0,��,0,135,0,�Ȃ�,0,0.5,0,,,,,,,,
�k�C���X�y�[�X�|�[�g(�����),2023/04/07 14:00:00,11.6,0,100,0,999.3,0,1002.2,0,3.9,0,��쐼,0,8.8,0,��쐼,0,96,0,�Ȃ�,0,0.0,0,,,,,,,,
�k�C���X�y�[�X�|�[�g(�����),2023/04/07 15:00:00,12.3,0,100,0,999.4,0,1002.3,0,2.7,0,��,0,6.3,0,�쐼,0,93,0,����,0,0.0,0,,,,,,,,
�k�C���X�y�[�X�|�[�g(�����),2023/04/07 16:00:00,10.1,0,100,0,999.1,0,1002.0,0,1.1,0,��쐼,0,4.8,0,��,0,69,0,����,0,0.5,0,,,,,,,,
�k�C���X�y�[�X�|�[�g(�����),2023/04/07 17:00:00,9.0,0,100,0,999.3,0,1002.2,0,0.8,0,���쓌,0,1.5,0,���쓌,0,41,0,����,0,0.0,0,,,,,,,,
�k�C���X�y�[�X�|�[�g(�����),2023/04/07 18:00:00,10.2,0,100,0,999.1,0,1002.0,0,1.8,0,��,0,3.6,0,��쐼,0,8,0,����,0,0.0,0,,,,,,,,
�k�C���X�y�[�X�|�[�g(�����),2023/04/07 19:00:00,9.2,0,100,0,999.2,0,1002.1,0,2.9,0,��쐼,0,5.6,0,��,0,0,0,����,0,0.0,0,,,,,,,,
�k�C���X�y�[�X�|�[�g(�����),2023/04/07 20:00:00,8.1,0,100,0,999.4,0,1002.3,0,0.7,0,�쓌,0,4.4,0,��쐼,0,0,0,����,0,0.0,0,,,,,,,,
�k�C���X�y�[�X�|�[�g(�����),2023/04/07 21:00:00,8.3,0,100,0,999.1,0,1002.0,0,1.7,0,��,0,4.4,0,�쐼,0,0,0,����,0,1.0,0,,,,,,,,
�k�C���X�y�[�X�|�[�g(�����),2023/04/07 22:00:00,9.1,0,100,0,998.8,0,1001.7,0,0.9,0,�k�k��,0,2.5,0,�k��,0,0,0,����,0,0.5,0,,,,,,,,
�k�C���X�y�[�X�|�[�g(�����),2023/04/07 23:00:00,9.6,0,100,0,998.5,0,1001.4,0,0.8,0,�k��,0,2.9,0,��쐼,0,0,0,����,0,0.5,0,,,,,,,,
�k�C���X�y�[�X�|�[�g(�����),2023/04/08 00:00:00,8.0,0,100,0,998.7,0,1001.6,0,0.7,0,���쓌,0,1.8,0,���쓌,0,0,0,����,0,0.5,0,,,,,,,,
�k�C���X�y�[�X�|�[�g(�����),2023/04/08 01:00:00,9.0,0,100,0,998.2,0,1001.1,0,1.2,0,�k��,0,3.3,0,�k�k��,0,0,0,����,0,1.0,0,,,,,,,,
�k�C���X�y�[�X�|�[�g(�����),2023/04/08 02:00:00,9.9,0,100,0,998.5,0,1001.4,0,1.5,0,��,0,3.2,0,�k�k��,0,0,0,����,0,0.5,0,,,,,,,,
�k�C���X�y�[�X�|�[�g(�����),2023/04/08 03:00:00,10.0,0,100,0,998.3,0,1001.2,0,1.1,0,�k��,0,2.5,0,�k��,0,0,0,����,0,0.5,0,,,,,,,,
�k�C���X�y�[�X�|�[�g(�����),2023/04/08 04:00:00,8.7,0,100,0,998.6,0,1001.5,0,1.9,0,�k��,0,3.4,0,���k��,0,0,0,����,0,0.0,0,,,,,,,,
�k�C���X�y�[�X�|�[�g(�����),2023/04/08 05:00:00,6.5,0,100,0,999.6,0,1002.5,0,1.8,0,�k��,0,5.6,0,��,0,0,0,�Ȃ�,0,0.0,0,,,,,,,,
�k�C���X�y�[�X�|�[�g(�����),2023/04/08 06:00:00,6.5,0,100,0,1000.0,0,1002.9,0,1.9,0,��,0,3.7,0,�k�k��,0,20,0,�Ȃ�,0,0.5,0,,,,,,,,
�k�C���X�y�[�X�|�[�g(�����),2023/04/08 07:00:00,6.3,0,100,0,1000.3,0,1003.2,0,3.0,0,�k�k��,0,5.1,0,�k�k��,0,75,0,�Ȃ�,0,0.0,0,,,,,,,,
�k�C���X�y�[�X�|�[�g(�����),2023/04/08 08:00:00,6.3,0,99,0,1000.8,0,1003.7,0,1.7,0,�k��,0,4.8,0,�k�k��,0,148,0,�Ȃ�,0,0.0,0,,,,,,,,
�k�C���X�y�[�X�|�[�g(�����),2023/04/08 09:00:00,6.4,0,96,0,1001.0,0,1003.9,0,3.2,0,���k��,0,4.8,0,���k��,0,247,0,�Ȃ�,0,0.0,0,,,,,,,,
�k�C���X�y�[�X�|�[�g(�����),2023/04/08 10:00:00,6.2,0,97,0,1001.0,0,1003.9,0,3.0,0,��,0,4.1,0,��,0,251,0,�Ȃ�,0,0.0,0,,,,,,,,
�k�C���X�y�[�X�|�[�g(�����),2023/04/08 11:00:00,6.6,0,99,0,1000.8,0,1003.7,0,2.5,0,���쓌,0,3.8,0,��,0,317,0,�Ȃ�,0,0.0,0,,,,,,,,
�k�C���X�y�[�X�|�[�g(�����),2023/04/08 12:00:00,6.3,0,100,0,999.8,0,1002.7,0,1.9,0,���쓌,0,4.3,0,��,0,251,0,�Ȃ�,0,0.0,0,,,,,,,,
�k�C���X�y�[�X�|�[�g(�����),2023/04/08 13:00:00,6.6,0,100,0,999.7,0,1002.6,0,1.7,0,�쓌,0,2.8,0,��,0,191,0,�Ȃ�,0,0.0,0,,,,,,,,
�k�C���X�y�[�X�|�[�g(�����),2023/04/08 14:00:00,6.5,0,100,0,999.2,0,1002.1,0,1.9,0,�쓌,0,2.9,0,�쓌,0,134,0,�Ȃ�,0,0.0,0,,,,,,,,
�k�C���X�y�[�X�|�[�g(�����),2023/04/08 15:00:00,6.1,0,100,0,999.1,0,1002.0,0,2.4,0,�쓌,0,3.4,0,�쓌,0,161,0,����,0,0.0,0,,,,,,,,
�k�C���X�y�[�X�|�[�g(�����),2023/04/08 16:00:00,5.9,0,100,0,999.2,0,1002.1,0,2.3,0,�쓌,0,3.8,0,��쓌,0,141,0,����,0,0.0,0,,,,,,,,
�k�C���X�y�[�X�|�[�g(�����),2023/04/08 17:00:00,5.7,0,100,0,999.4,0,1002.3,0,1.8,0,���쓌,0,3.5,0,���쓌,0,65,0,�Ȃ�,0,0.0,0,,,,,,,,
�k�C���X�y�[�X�|�[�g(�����),2023/04/08 18:00:00,5.8,0,100,0,998.5,0,1001.4,0,0.8,0,�쓌,0,3.5,0,�쓌,0,15,0,�Ȃ�,0,0.0,0,,,,,,,,